Погода в Петруни

Погода в Петруни : погода сейчас, прогноз погоды и архив. Всё, что Вы хотите узнать о погоде в Петруни!

Поиск расширенной информации на нашем сайте:

Полезная информация: Панель приборов хово на щитке приборов.
котокафе

Другие новости

Новости СМИ2

Главная страница сайта

Новости сайта

02.10.2013

Напоминаем, что на нашем новом сайте вы можете получить высокодетализированные прогнозы погоды по пунктам России, СНГ и мира (включающие важные для авиации метеовеличины, такие как направление и скорость ветра, видимость, явления погоды, количество и форма облачности, нижняя и верхняя граница облачности), а также ознакомиться с разнообразными материалами по авиационной метеорологии и подборкой полезных ссылок на эту тему.

Сайт Метеоцентр.Азия посвящён разработке технологий оптимизации авиаметеорологического обслуживания, включая проектирование и перспективное создание нескольких автоматизированных авиаметеорологических систем:
- система выпуска высокодетальных прогностических карт явлений погоды для нижнего воздушного пространства по России и ближнему зарубежью;
- система верификации прогнозов TAF (выпускаемых синоптиками официальных АМСГ РФ и ближнего зарубежья) и AUTOTAF (выпускаемых сайтом Метеоцентр.Азия) - выявление ошибок, онлайн-сопоставление с фактической погодой METAR, автоматическое внесение коррективов в прогнозы при резком отклонении фактической погоды от прогноза, подсчёт оправдываемости прогнозов по элементам и в целом;
- система обработки, анализа и отображения авиаметеорологической информации для применения провайдерами метеорологической информации.

Рекомендуем: Лада с пробегом купить авто с пробегом.

Погода в Петруни - сегодня

Время (UTC), дата Ветер
(°,м/с) 
Видим.   Явления Облачность Т
(°С)
Тd
(°С)
f(%) Тe
(°С)
Pmin
(гПа)
dP
(гПа)
Po
(мм)
O2
(г/м3)
Тmin Tmax R s Состояние
почвы
00 21.02.17 010 (С) 28000 м    ясно 
-35.1 -38.7 69 -36  983.6  -0.4  739  344           
03 21.02.17 020 (С) 25000 м    8/0 верхняя 
[Cs]
-34.2 -37.1 75 -35  993.7  0.1  739  342  -36.5      35  очень
неравномерный
сухой снег
(сугробы, заносы) 
06 21.02.17 010 (С) 30000 м    3/0 верхняя 
[Ci fib]
-32.4 -35.5 74 -36  994.2  0.6  739  340           
09 21.02.17 тихо ()   40000 м    ясно 
-27.6 -30.6 76 -28  995.1  1.1  740  334           
12 21.02.17 090 (В) 40000 м    ясно 
-26.5 -29.7 74 -27  996.7  1.6  741  333           
15 21.02.17 010 (С) 40000 м    ясно 
-32.9 -35.7 76 -34  998  1.1  742  342    -24.8       
18 21.02.17 020 (С) 35000 м    ясно 
-36 -39 74 -37  999.2  1.1  743  347           
21 21.02.17 020 (С) 35000 м    ясно 
-36.5 -39.4 74 -38  999.8  0.5  743  348           
00 22.02.17 030 (СВ) 30000 м    ясно 
-37.1 -40.7 69 -38  1000.2  0.4  743  349           
03 22.02.17 030 (СВ) 35000 м    3/0 средняя, верхняя 
[Ac lent|Ci fib]
-38.3 -41.5 72 -43  999.9  -0.3  743  350  -38.6      34  очень
неравномерный
сухой снег
(сугробы, заносы) 
06 22.02.17 020 (С) 30000 м    4/0 средняя, верхняя 
[Ac As|Ci fib]
-37.8 -41.1 71 -42  999.3  -0.6  743  349  -40         
09 22.02.17 030 (СВ) 29000 м    9/0 средняя, верхняя 
[Ac As|Cs]
-29.7 -32.8 74 -37  997.9  -1.1  742  337           
12 22.02.17 030 (СВ) 30000 м    10/0 средняя 
[Ac As]
-23.4 -25.9 80 -29  996.6  -1.1  741  328           
15 22.02.17 040 (СВ) 7000 м  слаб. снег  10/0 средняя 
[As op]
-18.2 -20.8 80 -23  996  -0.4  741  321    -18.2  0.4     
18 22.02.17 060 (СВ) 6000 м  слаб. снег  10/1 300 м средняя 
[Frnb|As op]
-17.1 -19.7 80 -24  995.5  -0.4  741  320           
21 22.02.17 020 (С) 5000 м  слаб. снег  10/10 240 м 
[Frnb|Ns]
-19.5 -22.1 80 -25  996.7  1.1  741  323           
00 23.02.17 250 (З) 6000 м  слаб. снег  10/10 210 м 
[Frnb|Ns]
-19.4 -22 80 -22  1000.3  3.6  744  324           
03 23.02.17 240 (ЮЗ) 27000 м  в посл. час снег  8/0 средняя 
[Ac As]
-20.1 -22.7 80 -24  1003.5  3.1  746  326  -20.1    35  очень
неравномерный
сухой снег
(сугробы, заносы) 
06 23.02.17 220 (ЮЗ) 25000 м  в посл. час снег  9/0 средняя 
[Ac As]
-23.3 -26.5 75 -26  1006.4  2.7  748  331  -23.6         
09 23.02.17 220 (ЮЗ) 35000 м    8/0 средняя, верхняя 
[Ac As|Cs]
-21.3 -25.3 70 -24  1009.6  3.3  751  330           
12 23.02.17 220 (ЮЗ) 40000 м    1/0 верхняя 
[Ci fib]
-21.7 -25.7 70 -22  1011.9  2.2  753  331           
15 23.02.17 тихо ()   40000 м    1/0 верхняя 
[Ci fib]
-27.6 -30.6 76 -28  1013.4  1.4  754  340    -20  0.2     
18 23.02.17 050 (СВ) 35000 м    ясно 
-31.5 -34.5 75 -35  1014.4  0.8  754  345           
21 23.02.17 050 (СВ) 35000 м    ясно 
-32.7 -35.7 75 -39  1014.5  0.1  754  347           
00 24.02.17 040 (СВ) 30000 м    ясно 
-31.7 -34.7 75 -38  1014.5  754  346           
Время (UTC), дата Ветер
(°,м/с) 
Видим.   Явления Облачность Т
(°С)
Тd
(°С)
f(%) Тe
(°С)
Pmin
(гПа)
dP
(гПа)
Po
(мм)
O2
(г/м3)
Тmin Tmax R s Состояние
почвы

Для получения пояснительной информации подведите курсор к названию столбца.

ПОГОДА в Петруни - архив

Всё, что Вы хотите узнать о погоде в Петруни - удобно и подробно!

Выберите нужную дату (начиная с 1 января 2015* года) и нажмите кнопку "Найти".
Будут отображены архивные сводки погоды по пункту Петрунь, начиная с указанной даты.


Отображать данные в формате CSV (для использования в таблицах Excel)


Внимание! Наш архив погоды предназначен исключительно для личного некоммерческого использования в познавательных целях. Если Вам необходимы официальные справки о состоянии погоды (для производственных, юридических, коммерческих и т.п. целей), обращайтесь в органы Росгидромета.

*Примечание: данная дата относится к архиву по метеостанциям СССР (Россия, СНГ, Балтия).
Архив по метеостанциям Зарубежной Европы и Азии (кроме Китая) хранится 10 дней, по другим регионам земного шара (Китай, Африка, Америка, Австралия, Океания) - 1 день.

Петрунь - район местоположения метеостанции


Название, широта, долгота, высота метеостанции:
Петрунь 66.5°ш. 60.8°д. 58 м над ур. моря [Российская Федерация]

Дополнительная информация

В oтличие oт бoльшинства пoгoдных сайтoв мы публикуем пoдрoбную метеoинфoрмацию в детальнoм прoфессиoнальнoм фoрмате.

Характеристики температуры и влажнoсти вoздуха измеряются на высoте 2 м в тени вдали oт зданий и деревьев.
Скoрoсть ветра измеряется на высoте 10 м (на урoвне рoста челoвека скoрoсть ветра ниже в 1.5-2 раза). Если метеoстанция нахoдится в гoрoде или в лесу, тo скoрoсть ветра занижена на 2-4 м/с пo сравнению с oткрытым местoм. Скoрoсть ветра над акватoриями крупных рек и oзёр, а также на вершинах хoлмoв на 2-5 м/с выше, чем в oбычных услoвиях.
Атмoсфернoе давление в разных тoчках местнoсти мoжет значительнo oтличаться oт давления на метеoстанции, в зависимoсти oт услoвий рельефа (при пoдъёме на 10 м давление пoнижается примернo на 1 мм рт.ст.).